Saratoga Shively Field Airpor, WY

12:11 AM MDT on March 26, 2017 (GMT -0600)
Shively

Weather History for KSAA - February, 2014

Change the Weather History Date:

Saturday, February 15, 2014

  Actual Average Record
Temperature  
Mean Temperature 42 °F -  
Max Temperature 48 °F 36 °F 50 °F (2017)
Min Temperature 37 °F 16 °F 19 °F (2015)
Degree Days  
Heating Degree Days 22    
Moisture  
Dew Point 30 °F    
Average Humidity 67    
Maximum Humidity 81    
Minimum Humidity 54    
Precipitation  
Precipitation 0.00 in - - ()
Sea Level Pressure  
Sea Level Pressure 29.97 in    
Wind  
Wind Speed 22 mph (WSW)    
Max Wind Speed 37 mph    
Max Gust Speed 46 mph    
Visibility 10 miles    
Events      
Averages and records for this station are not official NWS values.
T = Trace of Precipitation, MM = Missing Value Source: NWS Daily Summary

Daily Weather History Graph

Daily Weather History Graph

Search for Another Location

Airport or City:

Trip Planner

Search our weather history database for the weather conditions in past years. The results will help you decide how hot, cold, wet, or windy it might be!

Date:

Astronomy

Feb. 15, 2014 Rise Set
Actual Time 7:02 AM MST 5:41 PM MST
Civil Twilight 6:33 AM MST 6:09 PM MST
Nautical Twilight 6:01 AM MST 6:42 PM MST
Astronomical Twilight 5:29 AM MST 7:14 PM MST
Moon 6:45 PM MST (2/15) 7:01 AM MST (2/15)
Length of Visible Light 11h 35m
Length of Day
10h 38m
Waxing Gibbous, 99% of the Moon is Illuminated
Feb 15
Waxing Gibbous
Feb 22
Last Quarter
Mar 1
New
Mar 8
First Quarter
Mar 16
Full

Hourly Weather History & Observations

Time (MST) Temp. Windchill Dew Point Humidity Pressure Visibility Wind Dir Wind Speed Gust Speed Precip Events Conditions
12:15 AM 41.0 °F 29.8 °F 32.0 °F 70% 29.83 in 10.0 mi WSW 29.9 mph 41.4 mph N/A   Clear
12:35 AM 41.0 °F 28.8 °F 32.0 °F 70% 29.84 in 10.0 mi WSW 36.8 mph 46.0 mph N/A   Clear
12:55 AM 41.0 °F 29.7 °F 30.2 °F 65% 29.84 in 10.0 mi WSW 31.1 mph 40.3 mph N/A   Clear
1:15 AM 41.0 °F 29.8 °F 30.2 °F 65% 29.83 in 10.0 mi WSW 29.9 mph 42.6 mph N/A   Clear
1:35 AM 41.0 °F 29.0 °F 30.2 °F 65% 29.82 in 10.0 mi WSW 35.7 mph 43.7 mph N/A   Clear
1:55 AM 41.0 °F 29.0 °F 30.2 °F 65% 29.83 in 10.0 mi WSW 35.7 mph 44.9 mph N/A   Clear
2:15 AM 41.0 °F 29.5 °F 30.2 °F 65% 29.84 in 10.0 mi WSW 32.2 mph 41.4 mph N/A   Clear
2:35 AM 41.0 °F 30.0 °F 32.0 °F 70% 29.84 in 10.0 mi WSW 28.8 mph 39.1 mph N/A   Clear
2:55 AM 39.2 °F 27.8 °F 32.0 °F 75% 29.84 in 10.0 mi WSW 27.6 mph 39.1 mph N/A   Clear
3:15 AM 39.2 °F 27.8 °F 30.2 °F 70% 29.84 in 10.0 mi WSW 27.6 mph 34.5 mph N/A   Clear
3:35 AM 39.2 °F 27.6 °F 30.2 °F 70% 29.83 in 10.0 mi WSW 28.8 mph 35.7 mph N/A   Clear
3:55 AM 41.0 °F 29.8 °F 30.2 °F 65% 29.83 in 10.0 mi WSW 29.9 mph 35.7 mph N/A   Clear
4:15 AM 41.0 °F 29.8 °F 30.2 °F 65% 29.84 in 10.0 mi WSW 29.9 mph 42.6 mph N/A   Clear
4:35 AM 41.0 °F 30.5 °F 30.2 °F 65% 29.84 in 10.0 mi WSW 26.5 mph 36.8 mph N/A   Clear
4:55 AM 41.0 °F 30.7 °F 30.2 °F 65% 29.86 in 10.0 mi WSW 25.3 mph 38.0 mph N/A   Clear
5:15 AM 41.0 °F 31.1 °F 30.2 °F 65% 29.87 in 10.0 mi West 23.0 mph 34.5 mph N/A   Scattered Clouds
5:36 AM 39.2 °F 30.2 °F 30.2 °F 70% 29.87 in 10.0 mi West 17.3 mph 26.5 mph N/A   Mostly Cloudy
5:55 AM 37.4 °F 29.3 °F 30.2 °F 75% 29.89 in 10.0 mi West 12.7 mph 20.7 mph N/A   Mostly Cloudy
6:15 AM 39.2 °F 30.2 °F 30.2 °F 70% 29.90 in 10.0 mi West 17.3 mph 21.9 mph N/A   Overcast
6:35 AM 41.0 °F 31.6 °F 30.2 °F 65% 29.90 in 10.0 mi West 20.7 mph 26.5 mph N/A   Overcast
6:55 AM 39.2 °F 29.6 °F 30.2 °F 70% 29.92 in 10.0 mi West 19.6 mph 28.8 mph N/A   Overcast
7:15 AM 39.2 °F 30.5 °F 30.2 °F 70% 29.93 in 10.0 mi West 16.1 mph - N/A   Overcast
7:35 AM 37.4 °F 29.3 °F 30.2 °F 75% 29.95 in 10.0 mi West 12.7 mph 21.9 mph N/A   Overcast
7:55 AM 37.4 °F 31.4 °F 30.2 °F 75% 29.97 in 10.0 mi WNW 8.1 mph - N/A   Overcast
8:15 AM 37.4 °F 34.9 °F 30.2 °F 75% 29.98 in 10.0 mi West 3.5 mph - N/A   Overcast
8:35 AM 39.2 °F 31.6 °F 32.0 °F 75% 29.99 in 10.0 mi West 12.7 mph 21.9 mph N/A   Overcast
8:55 AM 37.4 °F 28.9 °F 32.0 °F 81% 30.00 in 10.0 mi West 13.8 mph - N/A   Overcast
9:15 AM 37.4 °F 28.2 °F 32.0 °F 81% 30.01 in 10.0 mi West 16.1 mph 21.9 mph N/A   Overcast
9:35 AM 37.4 °F 28.9 °F 32.0 °F 81% 30.02 in 10.0 mi West 13.8 mph 20.7 mph N/A   Overcast
9:55 AM 39.2 °F 30.5 °F 32.0 °F 75% 30.02 in 10.0 mi West 16.1 mph - N/A   Overcast
10:15 AM 41.0 °F 33.1 °F 32.0 °F 70% 30.02 in 10.0 mi WSW 15.0 mph 20.7 mph N/A   Overcast
10:35 AM 41.0 °F 31.9 °F 32.0 °F 70% 30.03 in 10.0 mi West 19.6 mph - N/A   Overcast
10:55 AM 42.8 °F 34.8 °F 32.0 °F 66% 30.04 in 10.0 mi West 17.3 mph 28.8 mph N/A   Overcast
11:15 AM 42.8 °F 33.5 °F 32.0 °F 66% 30.05 in 10.0 mi West 23.0 mph 31.1 mph N/A   Overcast
11:35 AM 42.8 °F 34.5 °F 32.0 °F 66% 30.05 in 10.0 mi West 18.4 mph 26.5 mph N/A   Overcast
11:55 AM 42.8 °F 34.3 °F 32.0 °F 66% 30.05 in 10.0 mi West 19.6 mph 25.3 mph N/A   Overcast
12:15 PM 42.8 °F 35.4 °F 32.0 °F 66% 30.03 in 10.0 mi WSW 15.0 mph 19.6 mph N/A   Overcast
12:35 PM 44.6 °F 36.6 °F 32.0 °F 61% 30.03 in 10.0 mi WSW 19.6 mph - N/A   Overcast
12:55 PM 44.6 °F 36.9 °F 32.0 °F 61% 30.02 in 10.0 mi WSW 18.4 mph 24.2 mph N/A   Overcast
1:15 PM 44.6 °F 36.4 °F 32.0 °F 61% 30.02 in 10.0 mi West 20.7 mph 26.5 mph N/A   Overcast
1:35 PM 44.6 °F 35.9 °F 32.0 °F 61% 30.02 in 10.0 mi West 23.0 mph 31.1 mph N/A   Overcast
1:55 PM 44.6 °F 35.9 °F 32.0 °F 61% 30.02 in 10.0 mi West 23.0 mph 33.4 mph N/A   Overcast
2:15 PM 44.6 °F 36.9 °F 32.0 °F 61% 30.02 in 10.0 mi West 18.4 mph 29.9 mph N/A   Overcast
2:35 PM 46.4 °F 39.2 °F 32.0 °F 57% 30.02 in 10.0 mi West 18.4 mph 28.8 mph N/A   Mostly Cloudy
2:55 PM 46.4 °F 39.8 °F 32.0 °F 57% 30.02 in 10.0 mi West 16.1 mph 23.0 mph N/A   Scattered Clouds
3:15 PM 46.4 °F 40.4 °F 32.0 °F 57% 30.02 in 10.0 mi West 13.8 mph 23.0 mph N/A   Mostly Cloudy
3:35 PM 48.2 °F - 32.0 °F 54% 30.04 in 10.0 mi West 18.4 mph 21.9 mph N/A   Mostly Cloudy
3:55 PM 44.6 °F 37.4 °F 30.2 °F 57% 30.04 in 10.0 mi West 16.1 mph 23.0 mph N/A   Overcast
4:15 PM 42.8 °F 36.6 °F 30.2 °F 61% 30.03 in 10.0 mi WSW 11.5 mph 16.1 mph N/A   Overcast
4:35 PM 42.8 °F 38.6 °F 30.2 °F 61% 30.03 in 10.0 mi WSW 6.9 mph - N/A   Overcast
4:55 PM 42.8 °F - 30.2 °F 61% 30.04 in 10.0 mi Calm Calm - N/A   Overcast
5:15 PM 41.0 °F - 28.4 °F 61% 30.03 in 10.0 mi Calm Calm - N/A   Overcast
5:35 PM 42.8 °F 39.3 °F 28.4 °F 57% 30.03 in 10.0 mi SE 5.8 mph - N/A   Overcast
5:55 PM 39.2 °F 35.0 °F 28.4 °F 65% 30.03 in 10.0 mi SE 5.8 mph - N/A   Mostly Cloudy
6:15 PM 37.4 °F 32.1 °F 28.4 °F 70% 30.04 in 10.0 mi SE 6.9 mph - N/A   Scattered Clouds
6:35 PM 37.4 °F 33.8 °F 28.4 °F 70% 30.04 in 10.0 mi SE 4.6 mph - N/A   Scattered Clouds
6:55 PM 37.4 °F 33.8 °F 28.4 °F 70% 30.04 in 10.0 mi SSE 4.6 mph - N/A   Mostly Cloudy
7:15 PM 41.0 °F 33.9 °F 28.4 °F 61% 30.05 in 10.0 mi SSW 12.7 mph - N/A   Mostly Cloudy
7:35 PM 37.4 °F 30.8 °F 28.4 °F 70% 30.04 in 10.0 mi South 9.2 mph - N/A   Mostly Cloudy
7:55 PM 37.4 °F 31.4 °F 30.2 °F 75% 30.04 in 10.0 mi ESE 8.1 mph - N/A   Scattered Clouds
8:15 PM 39.2 °F 31.6 °F 30.2 °F 70% 30.05 in 10.0 mi ESE 12.7 mph - N/A   Clear
8:36 PM 39.2 °F 35.0 °F 28.4 °F 65% 30.06 in 10.0 mi SE 5.8 mph - N/A   Mostly Cloudy
8:55 PM 39.2 °F 37.0 °F 28.4 °F 65% 30.06 in 10.0 mi SSE 3.5 mph - N/A   Overcast
9:15 PM 41.0 °F 36.4 °F 28.4 °F 61% 30.05 in 10.0 mi SSE 6.9 mph - N/A   Mostly Cloudy
9:35 PM 39.2 °F 32.0 °F 28.4 °F 65% 30.04 in 10.0 mi South 11.5 mph - N/A   Mostly Cloudy
9:56 PM 39.2 °F 32.0 °F 28.4 °F 65% 30.04 in 10.0 mi SSW 11.5 mph - N/A   Overcast
10:15 PM 41.0 °F 33.9 °F 28.4 °F 61% 30.04 in 10.0 mi SSW 12.7 mph 17.3 mph N/A   Overcast
10:35 PM 41.0 °F 37.1 °F 28.4 °F 61% 30.02 in 10.0 mi South 5.8 mph - N/A   Overcast
10:55 PM 39.2 °F 33.6 °F 28.4 °F 65% 30.00 in 10.0 mi South 8.1 mph - N/A   Overcast
11:15 PM 39.2 °F 33.6 °F 28.4 °F 65% 30.01 in 10.0 mi South 8.1 mph - N/A   Overcast
11:35 PM 37.4 °F 32.1 °F 28.4 °F 70% 30.00 in 10.0 mi South 6.9 mph - N/A   Overcast
11:55 PM 37.4 °F 30.8 °F 28.4 °F 70% 29.99 in 10.0 mi South 9.2 mph - N/A   Overcast